Regional Weather Roundup
Issued by NWS

Home | Current Version | Previous Version | Text Only | Print | Product List | Glossary On
Versions: 1 2 3 4 5 6 7 8 9 10 11 12 13 14 15 16 17 18 19 20 21 22 23 24 25 26 27 28 29 30 31 32 33 34 35 36 37 38 39 40 41 42 43 44 45 46 47 48 49 50
000
ASUS45 KBOU 030307
RWRCO

WEATHER ROUNDUP FOR COLORADO
NATIONAL WEATHER SERVICE DENVER/BOULDER CO
900 PM MDT SAT MAY 02 2015

NOTE: "FAIR" INDICATES FEW OR NO CLOUDS BELOW 12000 FEET WITH NO
SIGNIFICANT WEATHER AND/OR OBSTRUCTIONS TO VISIBILITY.

COZ001>005-013-030-031-030400-
...NORTHWEST COLORADO...

CITY           SKY/WX    TMP DP  RH WIND       PRES   REMARKS
CRAIG          MOCLDY    54  40  59 VRB6      30.02R
HAYDEN         MOCLDY    52  36  54 E10       30.03R
MEEKER         PTCLDY    53  36  52 NE8       30.01R
MOUNT WERNER   NOT AVBL
STEAMBOAT SPGS MOCLDY    50  35  56 NE6       30.05S
WALDEN         CLOUDY    41  34  75 SE8       30.11F
$$

COZ006>008-011-030400-
...WEST CENTRAL VALLEYS...

CITY           SKY/WX    TMP DP  RH WIND       PRES   REMARKS
GRAND JUNCTION PTCLDY    68  32  26 NE9       29.86R
MONTROSE       PTCLDY    63  28  26 SE10      29.95R
EAGLE          MOCLDY    54  39  58 SW9       30.10R
RIFLE          PTCLDY    59  35  40 SE8       29.97R
DELTA          PTCLDY    70  28  20 NE13      29.90R
NUCLA          PTCLDY    68  18  14 SW5       29.98R
$$

COZ017>023-064>068-030400-
...SOUTHWEST COLORADO...

CITY           SKY/WX    TMP DP  RH WIND       PRES   REMARKS
DURANGO        CLOUDY    59  32  36 SW13      30.07R
CORTEZ         CLEAR     65  30  27 S12       30.00R
PAGOSA SPRINGS CLOUDY    57  29  34 CALM      30.15R
TELLURIDE      CLOUDY    51  28  42 CALM      30.20R
WOLF CREEK PAS NOT AVBL
$$

COZ009-010-012-014-032>034-037-058>063-030400-
...CENTRAL COLORADO...

CITY           SKY/WX    TMP DP  RH WIND       PRES   REMARKS
ASPEN          LGT RAIN  49  39  68 S15       30.14R
BUENA VISTA    NOT AVBL
COPPER MTN     MOCLDY    37  28  70 S10       30.33R
BERTHOUD PASS  SNOW      28  19  69 NW13G18   30.35R VSB<1/4 WCI  18
COTTONWOOD PAS CLOUDY    46  30  53 CALM      30.23R
GUNNISON       MOCLDY    55  28  35 CALM      30.10R
KREMMLING      MOCLDY    50  32  50 S3        30.11F
LEADVILLE      CLOUDY    38  33  82 NW5       30.24R
MONARCH PASS   PTCLDY    36  30  80 S9        30.42R
SALIDA         MOCLDY    55  35  46 SW3       30.18R
SUNLIGHT       PTCLDY    39  32  75 E6        30.28S
WILKERSON PASS MOCLDY    37  27  65 W3        30.31R
$$

COZ069>075-030400-
...SAN LUIS VALLEY/SANGRE DE CRISTO MOUNTAINS...

CITY           SKY/WX    TMP DP  RH WIND       PRES   REMARKS
ALAMOSA        CLOUDY    49  41  74 S3        30.14R
LA VETA PASS   CLOUDY    39  32  75 MISG      30.23S
SAGUACHE       PTCLDY    45  36  70 E7        30.17R
$$

COZ035-036-038>040-030400-
...NORTHERN COLORADO FRONT RANGE...

CITY           SKY/WX    TMP DP  RH WIND       PRES   REMARKS
DENVER INTL AP MOCLDY    54  40  59 SE7       29.97S
DMNS CITY PARK   N/A     56  40  55 SW3       29.99R
AURORA         MOCLDY    55  41  58 E5        30.00R
FRONT RANGE AP MOCLDY    55  45  67 SE5       29.99S
ERIE MUNI ARPT MOCLDY    53  42  66 S7        29.97R
BOULDER MUN AP MOCLDY    57  39  51 S5        29.97R
CENTENNIAL     MOCLDY    54  40  59 SW5       30.02R
BROOMFIELD     NOT AVBL
FORT COLLINS   CLOUDY    61  37  41 W10       29.96R
LONGMONT       CLOUDY    62  37  40 SW9       29.97R
$$

COZ041-046-047-076>085-087-088-030400-
...PIKES PEAK/PALMER DIVIDE AND SOUTHERN FOOTHILLS...

CITY           SKY/WX    TMP DP  RH WIND       PRES   REMARKS
COLO. SPRINGS  CLOUDY    58  41  53 NW10      30.03R
A. F. ACADEMY  CLOUDY    58  38  47 SW8       30.05R
ELLICOTT         N/A    N/A N/A N/A SE6       30.00R
FALCON         CLOUDY    50  39  67 NW6       30.07R
FORT CARSON    CLOUDY    55  44  66 NW9       30.00R
LIMON          CLOUDY    57  42  57 VRB6      29.99R
MONUMENT HILL  CLOUDY    52  36  54 NE3       30.08R
TRINIDAD       CLOUDY    58  37  45 SW9       29.98F
$$

COZ042>045-048>051-090-091-030400-
...NORTHEAST COLORADO...

CITY           SKY/WX    TMP DP  RH WIND       PRES   REMARKS
GREELEY ARPT   CLOUDY    55  39  54 NW3       29.93R
AKRON          CLOUDY    56  44  64 VRB5      29.94F
BURLINGTON     CLOUDY    69  38  32 W14G22    29.92R
WRAY           CLOUDY    71  38  30 W21G31    29.88R
STERLING       CLOUDY    57  50  77 SW8       29.88F
HOLYOKE        NOT AVBL
FORT MORGAN    NOT AVBL
$$

COZ086-089-092>099-030400-
...SOUTHEAST COLORADO...

CITY           SKY/WX    TMP DP  RH WIND       PRES   REMARKS
PUEBLO         MOCLDY    60  45  57 CALM      29.92R
LA JUNTA       CLOUDY    66  41  40 MISG      29.90R
LAMAR          CLOUDY    62  49  62 E13G26    29.90F
SPRINGFIELD      N/A     60  44  55 N18       29.93R
$$


USA.gov is the U.S. government's official web portal to all federal, state and local government web resources and services.